Regional Weather Roundup
Issued by NWS Jackson, KY

Home | Current Version | Previous Version | Text Only | Print | Product List | Glossary Off
Versions: 1 2 3 4 5 6 7 8 9 10 11 12 13 14 15 16 17 18 19 20 21 22 23 24 25 26 27 28

000
ASUS43 KJKL 160710
RWRJKL

EAST KENTUCKY HOURLY WEATHER ROUNDUP
NATIONAL WEATHER SERVICE JACKSON KY
200 AM EST MON JAN 16 2017

NOTE: "FAIR" INDICATES FEW OR NO CLOUDS BELOW 12,000 FEET WITH
NO SIGNIFICANT WEATHER AND/OR OBSTRUCTIONS TO VISIBILITY.

* THESE REPORTS ARE NOT UNDER NWS QUALITY CONTROL AND MAY NOT
  REPORT WEATHER SUCH AS PRECIPITATION AND FOG.

KYZ079-080-083-085-087-088-110-112-115-119-120-160800
...EASTERN KENTUCKY...

CITY           SKY/WX    TMP DP  RH WIND       PRES   REMARKS
JACKSON        FOG       41  40  96 NE3       30.26F VSB 1/4
LONDON         FOG       45  43  93 CALM      30.26S VSB 1/2
SOMERSET*      FOG       43  43 100 CALM      30.27F VSB 1/2
WILLIAMSBURG*  CLOUDY    46  46 100 CALM      30.26F VSB 1/4
MIDDLESBORO*   CLOUDY    51  51 100 CALM      30.28S
HARLAN APT*    CLOUDY    52  48  87 CALM      30.27R
PIKE CO APT*   CLOUDY    43  43 100 N3        30.27R FOG
BIG SANDY APT* CLOUDY    40  40 100 N3        30.28S FOG
MOREHEAD APT*  CLOUDY    39  37  93 NE5       30.29F FOG
ASHLAND*       CLOUDY    39  37  93 CALM      30.31R
$$

KYZ035-036-041-042-044-050-067-078-099-160800
...CENTRAL KENTUCKY...

CITY           SKY/WX    TMP DP  RH WIND       PRES   REMARKS
MT STERLING*   CLOUDY    37  37 100 E5        30.29F FOG     WCI  34
FLEMING/MASON* CLOUDY    37  37  99 E7        30.30S FOG     WCI  32
DANVILLE*      FOG       41  41 100 CALM      30.27S VSB 1/2
LEXINGTON      CLOUDY    41  39  93 E5        30.26F
FRANKFORT      CLOUDY    41  38  89 E5        30.26S
LOUISVILLE     CLOUDY    42  39  89 E3        30.26F
LEBANON*       CLOUDY    41  41 100 E3        30.26S FOG
GLASGOW*       FOG      N/A N/A N/A CALM      30.23S VSB 1/2
BOWLING GREEN  FOG       46  44  93 NE3       30.24S VSB 1/2
$$

KYZ091>093-OHZ055-061-077-WVZ005-015-034-035-042-160800
...SOUTHERN OHIO/WEST VIRGINIA...

CITY           SKY/WX    TMP DP  RH WIND       PRES   REMARKS
COVINGTON      FOG       38  37  97 E7        30.28S VSB 3/4 WCI  33
COLUMBUS       CLOUDY    33  29  85 NE5       30.33R FOG     WCI  29
DAYTON         CLOUDY    33  32  96 SE6       30.30S FOG     WCI  28
WILMINGTON     FOG       34  34 100 E6        30.29S VSB 1/2 WCI  29
HUNTINGTON     CLOUDY    39  37  92 NE3       30.30F FOG
CHARLESTON     CLOUDY    40  38  93 CALM      30.31R
BECKLEY        CLOUDY    46  44  93 S3        30.27R
BLUEFIELD      CLOUDY    44  43  96 CALM      30.28R FOG
LOGAN CO APT*  CLOUDY    43  43 100 CALM      30.27R FOG
$$

VAZ002-007-008-TNZ017-027-036-066-071-160800
...SOUTHWEST VIRGINIA/EAST TENNESSEE...

CITY           SKY/WX    TMP DP  RH WIND       PRES   REMARKS
WISE*          FOG       52  52 100 CALM      30.28S VSB 1
JONESVILLE*    FOG       54  54 100 CALM      30.29S VSB 1/2
ABINGDON*      CLOUDY    56  56 100 CALM      30.28S FOG
BRISTOL        CLOUDY    55  54  96 CALM      30.27S FOG
MORRISTOWN*    FOG       55  55 100 E3        30.26R VSB 0
SEVIERVILLE*   CLOUDY    52  52 100 NE3       30.26R VSB 1/4
KNOXVILLE      FOG       55  54  96 NE6       30.24R VSB 1/16
LAFOLLETTE*    CLOUDY    52  52 100 CALM      30.28F FOG
OAK RIDGE      CLOUDY    54  52  93 CALM      30.26F
CROSSVILLE     FOG       50  49  96 CALM      30.25F VSB 1
NASHVILLE      FOG       50  49  96 CALM      30.23S VSB 1/4
$$

...KEY TO REMARKS...
VSB - VISIBILITY IN MILES
WCI - WIND CHILL INDEX
HX  - HEAT INDEX

$$




USA.gov is the U.S. government's official web portal to all federal, state and local government web resources and services.